Regional Weather Roundup
Issued by NWS Charleston, SC

Current Version | Previous Version | Graphics & Text | Print | Product List | Glossary On
Versions: 1 2 3 4 5 6 7 8 9 10 11 12 13 14 15 16 17 18 19 20 21 22 23 24 25 26 27 28 29 30 31 32 33 34 35 36 37 38 39 40 41 42 43 44 45 46 47 48 49 50
000
ASUS42 KCHS 240710
RWRCHS
REGIONAL WEATHER ROUNDUP
NATIONAL WEATHER SERVICE CHARLESTON SC
200 AM EST MON NOV 24 2014

NOTE: "FAIR" INDICATES FEW OR NO CLOUDS BELOW 12,000 FEET WITH NO
SIGNIFICANT WEATHER AND/OR OBSTRUCTIONS TO VISIBILITY.

NOT ALL STATIONS ARE QUALITY CONTROLLED BY THE NATIONAL
WEATHER SERVICE. USE DATA WITH CAUTION...ESPECIALLY
DEWPOINT OBSERVATIONS.

SCZ027-030-031-034>040-042>050-240800-
...SOUTHEAST SOUTH CAROLINA...

CITY           SKY/WX    TMP DP  RH WIND       PRES   REMARKS
N CHARLESTON   CLOUDY    66  64  93 S12       29.82F
WATERFRONT PRK   N/A     64 N/A N/A SW5         N/A
MOUNT PLEASANT CLOUDY    66  66 100 SW8       29.83F
JOHNS ISLAND   CLOUDY    66  66 100 S7        29.84S
PINOPOLIS        N/A     70  64  83 SW8G16    29.71F
MONCKS CORNER  PTSUNNY   68  68 100 SW6       29.80F
SUMMERVILLE    PTSUNNY   66  66 100 SW3       29.82S
BEAUFORT MCAS  CLOUDY    66  65  96 S3        29.84R FOG
BEAUFORT ARPT  FAIR      64  64 100 CALM      29.83F FOG
HILTON HEAD IS MOCLDY    66  66 100 S5        29.85F
WALTERBORO     PTSUNNY   68 N/A N/A SW7       29.82F
ALLENDALE      CLOUDY    66  66 100 CALM      29.81S

...SOUTHERN MIDLANDS AND PEE DEE...

CITY           SKY/WX    TMP DP  RH WIND       PRES   REMARKS
GEORGETOWN     NOT AVBL
KINGSTREE      NOT AVBL
ORANGEBURG     CLOUDY    68  64  87 SW12      29.80R
BARNWELL       CLOUDY    68  66  94 SW7       29.81R
AIKEN          CLOUDY    64  64 100 SW12G17   29.82R
MANNING        NOT AVBL
COLUMBIA       CLOUDY    67  62  84 SW10      29.78R
SUMTER         CLOUDY    66  64  94 SW16G24   29.77R
FLORENCE       MOCLDY    64  62  93 S7        29.79R
MYRTLE BEACH   MOCLDY    66  61  82 S9          N/A
N MYRTLE BEACH CLOUDY    63  62  97 S14       29.83R FOG

$$

GAZ063-065-086>088-099>101-113>116-118-119-134>141-150-240800-
...SOUTHEAST GEORGIA...

CITY           SKY/WX    TMP DP  RH WIND       PRES   REMARKS
SAVANNAH ARPT  CLOUDY    68  65  90 S3        29.84R
HUNTER AAF     MOCLDY    66  66 100 S5        29.82F
FORT STEWART   CLOUDY    67  65  94 S2        29.82S
STATESBORO     NOT AVBL
SYLVANIA       CLOUDY    66  65  97 SW3       29.83R
CLAXTON        CLOUDY    68  68 100 CALM      29.83R

...CSRA...CENTRAL AND FAR SOUTHEAST GEORGIA...

CITY           SKY/WX    TMP DP  RH WIND       PRES   REMARKS
THOMSON        MOCLDY    65  64  96 SW8       29.85R
AUGUSTA-BUSH   MOCLDY    66  62  87 SW12      29.80R
AUGUSTA-DANIEL MOCLDY    66  62  87 SW9       29.80S
SWAINSBORO     CLOUDY    68  68 100 SW3       29.82S
VIDALIA        CLOUDY    64  64 100 SW5       29.83R
HAZLEHURST     RAIN      67  67 100 SW3       29.82R
ALMA           CLOUDY    66  65  96 S7        29.83S
WAYCROSS       CLOUDY    72  72  99 SW9       29.83S FOG
JESUP          CLOUDY    70  68  94 CALM      29.84S
BAXLEY         CLOUDY    68  66  94 SW5       29.83R
BRUNSWICK      CLOUDY    68  66  94 S6        29.86S
SAINT SIMONS   PTCLDY    68  67  96 S5        29.85S

$$

SCZ027-028-034-036>038-045-046-048>050-GAZ119-141-240800-
...LAKE AND SUPPLEMENTAL COASTAL OBSERVATIONS...

STATION/POSITION TIME  TEMP    WIND        PRES    WAVE   SWELL
                       AIR SEA DIR/SP/G            HT/PER HT/PER/DIR
                 (UTC) (F)     (DEG/KT/KT) (MB)    (FT/S) (FT/S/D)
UPR LAKE MARION  NOT AVBL
WINYAH BAY       0600   65     240/  6     1009.0R
LAKE MURRAY      0600   65     240/  9/ 13 1007.8R
ACE BASIN NERRS  0600   64        CALM     1010.0S
FORT PULASKI     0700   63     150/  2/  2 1010.8F
SAPELO ISLAND    NOT AVBL

$$

ANZ835-935-AMZ111-154-330-350-352-354-370-450-454-472-240800-
...C-MAN AND BUOY OBSERVATIONS...

STATION/POSITION TIME  TEMP    WIND        PRES    WAVE   SWELL
                       AIR SEA DIR/SP/G            HT/PER HT/PER/DIR
                 (UTC) (F)     (DEG/KT/KT) (MB)    (FT/S) (FT/S/D)
FOLLY BEACH CMAN 0600   63     230/ 10/ 12 1010.8R
BUOY 41004       0700   76 74  210/ 21/ 25 1009.9R  11/10   8/10
BUOY 41008       0700   67 64  190/ 14/ 16 1011.0R   5/ 9   3/110/ 9
CAPERS NEARSHORE NOT AVBL
FRIPP NEARSHORE  NOT AVBL


STATION/POSITION TIME  TEMP    WIND        PRES    WAVE   SWELL
                       AIR SEA DIR/SP/G            HT/PER HT/PER/DIR
                 (UTC) (F)     (DEG/KT/KT) (MB)    (FT/S) (FT/S/D)
5E ST. MARYS GA  0700      61                N/A     5/ 9   2/110/11
FRYING PAN BUOY  0700   70 67  190/ 14/ 16 1011.5R  11/ 9  10/130/ 9
BUOY 41025       0700   71     160/ 31/ 37 1010.8R  13/ 8   2/100/16
CAPE LOOKOUT NC  0600   67     160/ 24/ 27 1011.2R
BUOY 41002       0553   74 73  180/ 25/ 31 1015.3   11/ 8
BUOY 41010       0700   78 78  170/ 19/ 21 1014.2F   9/10   5/130/10
ST AUGUSTINE FL  0700   70     210/  6/  9 1012.9R


$$


USA.gov is the U.S. government's official web portal to all federal, state and local government web resources and services.